カタログに戻る

ARIANE 44L R/B

運用中GTO
NORAD 24654·ROCKET BODY·🇫🇷 France

打ち上げ Nov 13, 1996 から Guiana Space Centre

Loading…

TLE

古いSource: Space-Track

元期: Sep 14, 2026, 06:53 UTC

1 24654U 96063C   26257.28721962  .00000884  00000-0  17612-2 0  9993
2 24654   4.4086 308.5570 7106697 262.5618  18.6384  2.44487109255178

AllMySatでARIANE 44L R/Bをリアルタイム追跡

Download on the App Store